Location: Unspecified
(0.0000°N, 0.0000°E)
Time: 18:38:48
(UTC+00:00)

Hubble Space Telescope - Visible Passes

Search period start: 20 December 2014 00:00
Search period end: 30 December 2014 00:00
Orbit: 545 x 549 km, 28.5° (Epoch: 19 December)

Date Brightness Start Highest point End Pass type
(mag) Time Alt. Az. Time Alt. Az. Time Alt. Az.
24 Dec 2.8 19:36:27 10° NNW 19:37:45 18° NNW 19:37:45 18° NNW visible
25 Dec 1.4 19:28:23 10° NW 19:31:34 39° N 19:31:34 39° N visible
26 Dec 0.7 19:20:26 10° NW 19:24:34 68° NNE 19:25:33 48° E visible
27 Dec 0.8 19:12:36 10° WNW 19:16:46 79° SSW 19:19:38 19° SE visible
28 Dec 3.5 05:28:22 10° SSW 05:31:31 20° SSE 05:34:39 10° ESE visible
28 Dec 1.6 19:04:54 10° WNW 19:08:57 51° SSW 19:13:01 10° SE visible
29 Dec 2.8 05:20:05 10° SSW 05:23:44 29° SSE 05:27:23 10° E visible
29 Dec 2.4 18:57:20 10° W 19:01:08 34° SSW 19:04:57 10° SE visible
